TimeEST,TemperatureF,Dew PointF,Humidity,Sea Level PressureIn,VisibilityMPH,Wind Direction,Wind SpeedMPH,Gust SpeedMPH,PrecipitationIn,Events,Conditions,WindDirDegrees,DateUTC
12:53 AM,35.1,3.9,27,30.03,10.0,SW,9.2,-,N/A,,Partly Cloudy,220,2014-01-31 05:53:00
1:53 AM,36.0,5.0,27,30.05,10.0,SSW,8.1,-,N/A,,Scattered Clouds,210,2014-01-31 06:53:00
2:53 AM,37.9,3.0,23,30.08,10.0,WSW,12.7,-,N/A,,Overcast,240,2014-01-31 07:53:00
3:53 AM,37.0,3.0,24,30.08,10.0,WSW,13.8,-,N/A,,Overcast,240,2014-01-31 08:53:00
4:53 AM,37.0,3.9,25,30.08,10.0,WSW,8.1,-,N/A,,Overcast,240,2014-01-31 09:53:00
5:53 AM,36.0,3.9,26,30.07,10.0,SW,9.2,-,N/A,,Overcast,230,2014-01-31 10:53:00
6:53 AM,33.1,15.1,48,30.13,10.0,WNW,9.2,-,N/A,,Overcast,300,2014-01-31 11:53:00
7:53 AM,30.9,19.0,61,30.14,10.0,WNW,4.6,-,N/A,,Scattered Clouds,290,2014-01-31 12:53:00
8:53 AM,33.1,19.0,56,30.16,10.0,West,3.5,-,N/A,,Scattered Clouds,260,2014-01-31 13:53:00
9:53 AM,34.0,19.0,54,30.16,10.0,SSW,4.6,-,N/A,,Clear,200,2014-01-31 14:53:00
10:53 AM,37.0,12.9,37,30.16,10.0,SW,8.1,-,N/A,,Clear,230,2014-01-31 15:53:00
11:53 AM,37.9,12.0,35,30.14,10.0,SW,13.8,-,N/A,,Clear,220,2014-01-31 16:53:00
12:53 PM,37.9,10.9,33,30.12,10.0,SSW,11.5,-,N/A,,Clear,210,2014-01-31 17:53:00
1:53 PM,39.9,9.0,28,30.10,10.0,WSW,9.2,-,N/A,,Clear,240,2014-01-31 18:53:00
2:53 PM,41.0,10.9,29,30.10,10.0,Variable,4.6,-,N/A,,Partly Cloudy,0,2014-01-31 19:53:00
3:53 PM,43.0,10.0,26,30.11,10.0,West,5.8,-,N/A,,Clear,280,2014-01-31 20:53:00
4:53 PM,42.1,10.9,28,30.13,10.0,WSW,4.6,-,N/A,,Clear,250,2014-01-31 21:53:00
5:53 PM,41.0,12.0,31,30.14,10.0,WSW,3.5,-,N/A,,Clear,250,2014-01-31 22:53:00
6:53 PM,36.0,15.1,43,30.16,10.0,Calm,Calm,-,N/A,,Clear,0,2014-01-31 23:53:00
7:53 PM,33.1,16.0,50,30.17,10.0,Calm,Calm,-,N/A,,Clear,0,2014-02-01 00:53:00
8:53 PM,30.9,17.1,57,30.17,10.0,Calm,Calm,-,N/A,,Clear,0,2014-02-01 01:53:00
9:53 PM,28.0,17.1,63,30.18,10.0,Calm,Calm,-,N/A,,Clear,0,2014-02-01 02:53:00
10:53 PM,28.0,17.1,63,30.16,10.0,Calm,Calm,-,N/A,,Clear,0,2014-02-01 03:53:00
11:53 PM,27.0,19.0,72,30.15,10.0,Calm,Calm,-,N/A,,Clear,0,2014-02-01 04:53:00